Sigonella, Italy

8:59 AM CET on February 08, 2016 (GMT +0100)
Sigonella Mil

Weather History for LICZ - March, 2013

Change the Weather History Date:

Monday, March 4, 2013

  Actual Average Record
Temperature  
Mean Temperature 54 °F -  
Max Temperature 66 °F 65 °F 73 °F (2001)
Min Temperature 41 °F 44 °F 33 °F (1997)
Degree Days  
Heating Degree Days 12    
Growing Degree Days 4 (Base 50)    
Moisture  
Dew Point 46 °F    
Average Humidity 84    
Maximum Humidity 100    
Minimum Humidity 30    
Precipitation  
Precipitation 0.00 in 0.04 in - ()
Sea Level Pressure  
Sea Level Pressure 30.11 in    
Wind  
Wind Speed 5 mph ()    
Max Wind Speed 14 mph    
Max Gust Speed -    
Visibility 6.7 miles    
Events      
Averages and records for this station are not official NWS values.
T = Trace of Precipitation, MM = Missing Value Source: Averaged Metar Reports

Daily Weather History Graph

Daily Weather History Graph

Search for Another Location

Airport or City:

Trip Planner

Search our weather history database for the weather conditions in past years. The results will help you decide how hot, cold, wet, or windy it might be!

Date:

Astronomy

Mar. 04, 2013 Rise Set
Actual Time 6:27 AM CET 5:57 PM CET
Civil Twilight 6:01 AM CET 6:23 PM CET
Nautical Twilight 5:31 AM CET 6:53 PM CET
Astronomical Twilight 5:00 AM CET 7:23 PM CET
Moon 12:12 AM CET (3/4) 10:28 AM CET (3/4)
Length of Visible Light 12h 22m
Length of Day
11h 29m
Waning Gibbous, 55% of the Moon is Illuminated
Mar 4
Waning Gibbous
Mar 4
Last Quarter
Mar 11
New
Mar 19
First Quarter
Mar 27
Full

Hourly Weather History & Observations

Time (CET) Temp. Windchill Dew Point Humidity Pressure Visibility Wind Dir Wind Speed Gust Speed Precip Events Conditions
12:55 AM 51.8 °F - 51.8 °F 100% 30.06 in 6.2 mi WSW 3.5 mph - N/A   Scattered Clouds
1:55 AM 46.4 °F 43.5 °F 46.4 °F 100% 30.06 in 6.2 mi West 5.8 mph - N/A   Scattered Clouds
2:55 AM 44.6 °F - 44.6 °F 100% 30.06 in 6.2 mi NW 2.3 mph - N/A   Scattered Clouds
3:55 AM 42.8 °F 41.1 °F 42.8 °F 100% 30.06 in 6.2 mi West 3.5 mph - N/A   Scattered Clouds
4:00 AM 44 °F - 44 °F 97% 30.09 in 6 mi West 3.5 mph - -   Scattered Clouds
4:55 AM 42.8 °F 40.1 °F 42.8 °F 100% 30.06 in 6.2 mi West 4.6 mph - N/A   Scattered Clouds
5:55 AM 41.0 °F 38.0 °F 41.0 °F 100% 30.06 in 6.2 mi West 4.6 mph - N/A   Scattered Clouds
6:55 AM 41.0 °F 37.1 °F 41.0 °F 100% 30.06 in 6.2 mi West 5.8 mph - N/A   Mostly Cloudy
7:00 AM 42 °F - 42 °F 99% 30.09 in 6 mi West 5.8 mph - -   Scattered Clouds
7:55 AM 42.8 °F 41.1 °F 42.8 °F 100% 30.09 in 6.2 mi WNW 3.5 mph - N/A   Mostly Cloudy
8:55 AM 48.2 °F - 46.4 °F 93% 30.12 in 6.2 mi WNW 6.9 mph - N/A   Partly Cloudy
9:55 AM 55.4 °F - 46.4 °F 72% 30.12 in 6.2 mi WNW 4.6 mph - N/A   Partly Cloudy
10:00 AM 55 °F - 46 °F 63% 30.14 in 10 mi WNW 4.6 mph - -   Scattered Clouds
10:55 AM 57.2 °F - 44.6 °F 63% 30.12 in 6.2 mi West 4.6 mph - N/A   Partly Cloudy
11:55 AM 60.8 °F - 41.0 °F 48% 30.12 in 6.2 mi WNW 4.6 mph - N/A   Partly Cloudy
12:55 PM 62.6 °F - 39.2 °F 42% 30.09 in 6.2 mi WSW 4.6 mph - N/A   Partly Cloudy
1:00 PM 63 °F - 40 °F 30% 30.12 in 10 mi WSW 4.6 mph - -   Scattered Clouds
1:55 PM 66.2 °F - 37.4 °F 35% 30.09 in 6.2 mi NW 6.9 mph - N/A   Scattered Clouds
2:55 PM 62.6 °F - 46.4 °F 55% 30.09 in 6.2 mi ENE 9.2 mph - N/A   Scattered Clouds
3:55 PM 59.0 °F - 50.0 °F 72% 30.06 in 6.2 mi ENE 13.8 mph - N/A   Scattered Clouds
4:00 PM 60 °F - 51 °F 63% 30.09 in 10 mi ENE 13.8 mph - -   Partly Cloudy
5:55 PM 53.6 °F - 51.8 °F 94% 30.09 in 6.2 mi ENE 10.4 mph - N/A   Partly Cloudy
6:55 PM 53.6 °F - 51.8 °F 94% 30.12 in 6.2 mi ENE 8.1 mph - N/A   Partly Cloudy
7:00 PM 53 °F - 52 °F 97% 30.14 in 10 mi ENE 8.1 mph - -   Scattered Clouds
7:55 PM 50.0 °F - 50.0 °F 100% 30.15 in 6.2 mi East 3.5 mph - N/A   Partly Cloudy
8:55 PM 50.0 °F - 50.0 °F 100% 30.18 in 6.2 mi ENE 5.8 mph - N/A   Scattered Clouds
9:55 PM 50.0 °F - 50.0 °F 100% 30.18 in 6.2 mi WNW 2.3 mph - N/A   Scattered Clouds
10:00 PM 49 °F - 49 °F 100% 30.19 in 6 mi WNW 2.3 mph - -   Partly Cloudy
10:55 PM 50.0 °F - 50.0 °F 100% 30.18 in 6.2 mi West 4.6 mph - N/A   Scattered Clouds
11:55 PM 48.2 °F - 48.2 °F 100% 30.18 in 6.2 mi West 5.8 mph - N/A   Scattered Clouds